TimeMST,TemperatureF,Dew PointF,Humidity,Sea Level PressureIn,VisibilityMPH,Wind Direction,Wind SpeedMPH,Gust SpeedMPH,PrecipitationIn,Events,Conditions,WindDirDegrees,DateUTC
12:02 AM,24.8,21.2,86,29.82,1.0,East,4.6,-,0.00,Snow,Light Snow,100,2013-02-21 07:02:00
12:22 AM,24.8,21.2,86,29.82,1.0,ESE,3.5,-,0.00,Snow,Light Snow,110,2013-02-21 07:22:00
12:31 AM,24.8,21.2,86,29.82,1.2,ESE,3.5,-,0.01,Snow,Light Snow,120,2013-02-21 07:31:00
12:53 AM,24.1,21.0,88,29.93,1.0,Calm,Calm,-,0.01,Snow,Light Snow,0,2013-02-21 07:53:00
1:07 AM,24.8,21.2,86,29.83,1.8,Calm,Calm,-,0.01,Snow,Light Snow,0,2013-02-21 08:07:00
1:15 AM,24.8,21.2,86,29.83,2.5,Calm,Calm,-,0.01,Snow,Light Snow,0,2013-02-21 08:15:00
1:26 AM,24.8,21.2,86,29.82,3.0,Calm,Calm,-,0.01,Snow,Light Snow,0,2013-02-21 08:26:00
1:53 AM,23.0,19.9,88,29.93,5.0,SSW,3.5,-,0.01,Snow,Light Snow,200,2013-02-21 08:53:00
2:53 AM,21.9,19.0,89,29.95,4.0,WSW,6.9,-,0.00,Snow,Light Snow,250,2013-02-21 09:53:00
3:31 AM,17.6,14.0,86,29.83,1.5,West,4.6,-,0.00,,Overcast,280,2013-02-21 10:31:00
3:33 AM,15.8,12.2,86,29.83,0.8,West,4.6,-,0.00,,Overcast,280,2013-02-21 10:33:00
3:48 AM,15.8,12.2,86,29.84,1.2,West,5.8,-,0.00,,Overcast,280,2013-02-21 10:48:00
3:53 AM,15.1,12.9,91,29.98,2.5,WNW,4.6,-,0.00,,Overcast,290,2013-02-21 10:53:00
3:55 AM,15.8,12.2,86,29.84,1.0,WNW,5.8,-,N/A,,Overcast,300,2013-02-21 10:55:00
4:02 AM,17.6,15.8,93,29.84,0.8,NW,9.2,-,N/A,,Overcast,320,2013-02-21 11:02:00
4:05 AM,19.4,15.8,86,29.84,1.5,NW,8.1,-,N/A,,Overcast,320,2013-02-21 11:05:00
4:07 AM,19.4,15.8,86,29.84,4.0,NW,8.1,-,N/A,,Overcast,320,2013-02-21 11:07:00
4:43 AM,17.6,15.8,93,29.85,1.8,NW,9.2,-,N/A,,Overcast,320,2013-02-21 11:43:00
4:50 AM,17.6,15.8,93,29.85,0.8,NW,10.4,-,N/A,,Overcast,320,2013-02-21 11:50:00
4:53 AM,18.0,15.1,88,29.99,0.5,NW,10.4,-,N/A,Fog,Light Freezing Fog,320,2013-02-21 11:53:00
5:01 AM,17.6,15.8,93,29.86,0.2,NW,8.1,-,N/A,Fog,Light Freezing Fog,310,2013-02-21 12:01:00
5:11 AM,17.6,15.8,93,29.86,0.2,WNW,6.9,-,N/A,Fog,Light Freezing Fog,300,2013-02-21 12:11:00
5:18 AM,19.4,17.6,93,29.86,0.5,NW,6.9,-,N/A,Fog,Light Freezing Fog,310,2013-02-21 12:18:00
5:24 AM,19.4,17.6,93,29.86,1.0,NW,6.9,-,N/A,,Overcast,310,2013-02-21 12:24:00
5:27 AM,19.4,17.6,93,29.86,2.0,WNW,5.8,-,N/A,,Overcast,290,2013-02-21 12:27:00
5:32 AM,19.4,17.6,93,29.86,4.0,NW,6.9,-,N/A,,Overcast,310,2013-02-21 12:32:00
5:53 AM,19.0,16.0,88,30.01,10.0,West,3.5,-,N/A,,Overcast,270,2013-02-21 12:53:00
6:53 AM,10.0,7.0,87,30.04,10.0,NW,5.8,-,N/A,,Mostly Cloudy,310,2013-02-21 13:53:00
7:53 AM,12.9,9.0,84,30.04,10.0,NW,9.2,-,N/A,,Mostly Cloudy,320,2013-02-21 14:53:00
8:53 AM,14.0,10.0,84,30.05,10.0,NW,8.1,-,N/A,,Clear,320,2013-02-21 15:53:00
9:53 AM,15.1,10.9,84,30.06,10.0,WNW,6.9,-,N/A,,Clear,290,2013-02-21 16:53:00
10:53 AM,23.0,16.0,74,30.03,10.0,WSW,5.8,-,N/A,,Clear,250,2013-02-21 17:53:00
11:53 AM,27.0,15.1,61,30.01,10.0,WNW,5.8,-,N/A,,Clear,300,2013-02-21 18:53:00
12:53 PM,30.0,15.1,54,29.98,10.0,NW,4.6,-,N/A,,Clear,310,2013-02-21 19:53:00
1:53 PM,32.0,16.0,52,29.95,10.0,West,10.4,-,N/A,,Clear,270,2013-02-21 20:53:00
2:53 PM,32.0,10.9,42,29.95,10.0,West,12.7,-,N/A,,Clear,270,2013-02-21 21:53:00
3:53 PM,30.9,15.1,52,29.97,10.0,WNW,6.9,-,N/A,,Clear,300,2013-02-21 22:53:00
4:53 PM,30.0,12.9,49,29.96,10.0,NNW,3.5,-,N/A,,Clear,330,2013-02-21 23:53:00
5:53 PM,18.0,9.0,68,30.00,10.0,SW,3.5,-,N/A,,Clear,220,2013-02-22 00:53:00
6:53 PM,21.0,7.0,55,30.02,10.0,SW,9.2,-,N/A,,Clear,230,2013-02-22 01:53:00
7:53 PM,19.9,8.1,60,30.04,10.0,Variable,4.6,-,N/A,,Clear,0,2013-02-22 02:53:00
8:53 PM,18.0,8.1,65,30.03,10.0,WSW,5.8,-,N/A,,Clear,250,2013-02-22 03:53:00
9:53 PM,21.9,12.0,66,30.01,10.0,WSW,12.7,-,N/A,,Overcast,240,2013-02-22 04:53:00
10:53 PM,26.1,12.9,58,29.97,10.0,WSW,15.0,19.6,N/A,,Overcast,250,2013-02-22 05:53:00
11:53 PM,28.0,12.0,51,29.94,10.0,SW,21.9,-,N/A,,Overcast,220,2013-02-22 06:53:00